Vorticity
5 6 6 5 4 4 5 5 5 5 4 4 4 4 4 4 5 7 9 9 8 10 9 11 7 7 5 8 2 5 3 4 4 5 6 8 12 12 10 9 8 17 6 10 7 8 7
5 4 4 4 4 4 4 4 4 4 4 4 4 4 3 3 4 5 6 7 8 8 9 10 11 5 10 14 3 6 6 3 3 3 5 6 8 13 6 8 11 5 5 4 7 6 7
3 3 4 5 5 4 4 3 4 4 4 4 4 4 4 4 4 4 5 5 7 8 14 7 10 11 12 5 6 5 7 5 4 5 4 6 4 13 11 15 -5 6 7 11 21 20 12
4 4 3 3 4 3 4 5 5 5 4 4 4 3 3 4 3 4 5 4 5 7 7 12 6 10 16 2 5 5 9 5 6 6 5 6 5 7 9 9 7 14 25 0 -11 19 12
6 6 6 5 5 5 5 4 4 5 5 4 4 4 4 4 4 3 3 4 5 7 2 10 28 11 -2 5 7 1 11 5 7 7 6 6 9 10 6 6 25 4 -8 -1 22 3 5
10 11 11 14 16 16 14 10 7 5 4 6 7 5 5 5 4 4 3 3 4 10 -1 19 14 16 7 3 8 10 7 4 9 6 7 10 11 12 5 8 -8 -9 8 5 6 -14 6
4 6 6 7 6 6 8 10 14 16 12 6 5 7 6 6 6 5 7 5 6 13 4 30 1 6 3 -1 5 24 0 6 7 7 10 7 16 6 7 8 10 3 6 11 19 18 13
3 2 3 3 2 3 4 3 3 4 7 15 12 7 7 7 7 6 6 5 5 4 2 33 -6 11 -1 3 16 6 11 5 8 11 7 9 10 8 8 10 11 11 9 3 13 1 12
2 3 1 0 -0 -2 1 1 -0 2 3 4 11 13 8 7 8 7 7 5 5 6 9 31 -1 14 -1 10 27 9 9 6 9 12 4 16 -1 11 8 11 3 9 24 10 6 2 28
3 3 4 3 3 -0 -1 3 6 8 7 7 8 9 12 9 9 8 5 7 7 7 35 18 5 2 -1 14 1 16 5 10 13 5 18 12 -6 10 10 8 9 7 -1 11 7 19 -1
4 2 2 3 3 3 5 7 15 15 18 12 13 13 12 11 8 8 7 8 6 6 15 10 8 -8 2 11 9 -1 4 4 10 12 6 -1 9 13 3 4 8 -2 3 16 18 22 23
3 3 3 3 3 5 9 14 13 9 15 11 13 13 11 12 10 9 8 8 9 21 16 5 2 -4 2 22 2 12 3 9 22 1 9 12 23 18 1 -1 6 12 4 49 16 12 17
4 5 5 3 6 9 11 13 11 14 14 15 10 9 12 12 8 8 9 10 24 11 8 11 -8 1 8 10 9 -1 12 13 14 9 -18 32 8 10 21 5 14 -11 26 5 12 14 -2
6 4 4 8 8 11 13 13 12 14 15 12 10 11 8 14 10 9 10 12 11 8 -3 -10 5 3 20 1 8 0 12 12 10 6 25 5 12 -2 -22 18 -7 19 7 11 11 6 -16
5 6 7 9 11 13 14 12 12 11 11 12 11 11 10 12 14 9 10 13 0 12 7 10 -2 30 9 -13 13 16 1 24 3 3 16 23 -3 -0 25 13 14 -1 5 -3 7 32 14
7 7 8 12 13 12 13 14 12 11 11 14 13 12 15 16 13 11 10 -6 -5 8 -2 -5 11 9 -3 -2 23 6 22 10 5 9 -0 -13 21 24 -10 15 25 25 2 6 15 10 16
6 8 10 11 11 12 12 12 15 11 7 16 15 14 13 11 17 15 9 1 12 13 9 11 13 -7 2 22 -3 12 9 6 11 -5 10 13 16 -34 4 8 2 5 6 5 6 3 4
9 11 10 10 11 12 11 11 8 7 13 13 11 13 10 12 13 14 14 13 12 12 10 14 6 5 17 -2 18 16 -0 4 5 15 8 15 15 -6 26 41 26 12 17 16 3 14 -6
10 12 9 9 9 10 10 12 11 9 10 9 13 12 4 6 2 9 10 -1 0 2 1 8 9 -0 -0 26 13 6 6 -11 24 8 -9 7 -8 21 14 6 -7 -15 -2 10 18 10 3
9 10 10 10 8 9 10 11 10 12 9 13 15 12 10 18 21 17 10 13 13 2 10 5 -3 2 19 4 -11 3 -14 30 -4 -8 -1 19 24 -4 -42 -35 -12 -1 28 22 19 21 4
9 8 8 8 7 9 10 12 11 12 14 14 8 8 8 -7 7 19 22 5 10 14 21 13 23 18 0 7 10 19 9 -14 -1 27 -3 23 2 13 11 -6 46 43 -12 19 20 19 8
10 9 8 9 9 9 11 11 14 13 12 16 17 7 14 10 5 5 -10 -0 10 21 3 -1 9 -8 -4 4 -1 7 9 6 6 6 -10 -7 11 -20 16 52 5 -30 56 10 15 18 16
9 9 9 10 10 9 10 12 11 11 13 11 14 15 -2 -1 6 22 7 8 1 2 15 15 14 4 3 8 -1 1 -2 -1 -6 -3 5 7 12 -2 14 3 22 59 5 13 8 5 15
9 10 11 10 9 10 10 13 13 12 10 9 10 16 16 1 4 -13 3 -3 4 14 6 9 -3 7 6 2 5 6 5 7 12 17 16 10 14 16 -1 50 20 -9 -9 14 13 17 11
10 10 9 9 10 9 12 12 10 10 9 10 8 11 12 11 14 15 5 -10 -11 1 6 -1 12 7 -4 -2 5 31 34 58 38 31 36 30 34 -9 -2 0 -15 64 5 14 6 9 11
10 10 9 9 9 10 11 11 12 10 10 14 17 12 11 10 27 36 22 21 15 13 11 7 8 5 10 13 23 23 -6 -7 26 19 20 22 28 -15 18 7 2 -9 -3 11 12 24 17
10 10 9 10 11 12 11 11 9 10 13 11 6 7 6 8 16 17 14 2 2 -1 -2 3 15 24 18 22 19 18 21 -23 8 18 23 15 20 3 2 -8 12 14 25 11 16 -25 23
10 9 10 11 11 12 13 12 11 21 15 9 10 10 10 7 -0 -1 -1 -0 -6 -5 3 -17 -6 6 13 11 10 3 15 -4 29 7 -3 -1 7 16 36 4 20 27 3 6 -1 7 22
10 13 13 14 17 17 13 13 10 11 2 7 12 9 3 4 -17 -22 -28 -21 -7 -2 -20 -11 24 -33 6 5 12 14 4 -5 19 -10 22 19 5 -19 -11 -10 -25 -17 -4 1 6 6 9
Height
3173 3171 3170 3169 3168 3167 3166 3163 3162 3160 3158 3156 3155 3152 3150 3147 3145 3142 3140 3138 3135 3133 3130 3128 3126 3124 3122 3120 3119 3116 3114 3111 3108 3105 3101 3098 3094 3091 3089 3086 3084 3083 3082 3081 3080 3078 3077
3171 3171 3170 3169 3167 3166 3165 3165 3163 3161 3159 3156 3154 3152 3150 3147 3145 3142 3140 3137 3134 3132 3129 3127 3125 3123 3121 3120 3118 3115 3113 3110 3107 3104 3100 3097 3093 3090 3087 3086 3083 3081 3078 3078 3077 3075 3072
3171 3170 3169 3167 3166 3165 3164 3162 3162 3161 3160 3157 3154 3151 3149 3147 3144 3141 3139 3136 3133 3131 3128 3126 3123 3121 3120 3119 3116 3114 3111 3109 3106 3103 3100 3096 3093 3089 3086 3084 3082 3079 3075 3073 3073 3071 3069
3170 3169 3168 3167 3166 3164 3163 3161 3160 3158 3157 3155 3154 3151 3148 3146 3143 3141 3138 3135 3133 3129 3127 3124 3122 3120 3118 3117 3115 3112 3110 3107 3104 3101 3098 3094 3091 3088 3084 3082 3080 3077 3074 3070 3070 3068 3066
3168 3167 3166 3164 3163 3162 3160 3159 3157 3156 3154 3153 3151 3149 3147 3145 3142 3139 3137 3134 3132 3128 3125 3122 3119 3118 3118 3116 3113 3111 3108 3105 3102 3099 3096 3093 3090 3087 3084 3080 3079 3076 3074 3070 3064 3064 3061
3165 3164 3163 3162 3161 3159 3158 3157 3154 3153 3152 3150 3148 3147 3144 3142 3140 3138 3135 3133 3130 3128 3124 3120 3118 3119 3117 3115 3112 3108 3106 3103 3100 3097 3095 3092 3089 3085 3083 3080 3078 3073 3070 3066 3064 3060 3056
3163 3162 3160 3159 3158 3157 3156 3154 3151 3150 3149 3146 3145 3144 3142 3139 3137 3136 3133 3131 3131 3127 3122 3119 3118 3116 3114 3113 3110 3106 3104 3102 3099 3096 3093 3090 3088 3085 3082 3080 3077 3073 3069 3064 3060 3058 3050
3160 3160 3158 3156 3155 3155 3155 3152 3150 3148 3145 3143 3141 3139 3138 3137 3134 3132 3130 3128 3126 3126 3121 3117 3116 3114 3113 3110 3107 3104 3102 3100 3097 3093 3090 3090 3086 3084 3081 3078 3075 3072 3067 3061 3055 3054 3049
3158 3157 3156 3155 3153 3152 3150 3149 3148 3145 3141 3138 3137 3135 3134 3133 3131 3130 3127 3125 3122 3120 3118 3115 3114 3113 3112 3109 3105 3103 3101 3098 3094 3091 3089 3086 3086 3082 3079 3077 3073 3070 3065 3060 3056 3049 3046
3154 3153 3152 3151 3150 3148 3145 3144 3141 3139 3135 3132 3132 3130 3129 3128 3129 3126 3125 3123 3120 3117 3114 3114 3112 3112 3110 3106 3104 3101 3099 3098 3093 3090 3087 3085 3083 3080 3078 3075 3072 3066 3063 3058 3053 3051 3047
3151 3150 3149 3148 3145 3142 3140 3138 3134 3131 3129 3127 3125 3125 3124 3123 3122 3122 3122 3120 3118 3116 3114 3113 3110 3110 3108 3107 3104 3101 3098 3095 3092 3089 3089 3086 3080 3078 3076 3074 3071 3068 3061 3055 3051 3050 3047
3146 3145 3143 3141 3139 3136 3134 3130 3127 3124 3123 3121 3119 3118 3119 3119 3119 3119 3117 3117 3117 3117 3109 3108 3107 3107 3106 3103 3102 3099 3096 3094 3091 3088 3085 3082 3078 3076 3074 3072 3069 3065 3059 3051 3048 3048 3047
3140 3138 3137 3135 3132 3128 3125 3122 3120 3118 3115 3116 3114 3114 3113 3114 3116 3115 3115 3114 3116 3111 3108 3106 3105 3104 3103 3101 3099 3097 3095 3093 3090 3087 3083 3079 3076 3075 3072 3071 3068 3065 3059 3054 3052 3051 3045
3134 3133 3130 3127 3124 3121 3118 3115 3113 3111 3109 3109 3108 3107 3107 3109 3110 3111 3113 3113 3111 3106 3105 3103 3102 3102 3101 3099 3097 3095 3092 3091 3089 3087 3084 3080 3075 3074 3072 3070 3067 3064 3062 3062 3063 3057 3044
3128 3125 3124 3121 3117 3113 3111 3109 3107 3106 3104 3103 3103 3103 3103 3104 3105 3106 3110 3107 3103 3102 3102 3102 3101 3098 3098 3098 3097 3094 3090 3089 3089 3088 3087 3083 3075 3072 3069 3067 3067 3063 3061 3060 3056 3050 3046
3121 3118 3116 3112 3109 3106 3105 3103 3102 3100 3099 3099 3098 3097 3099 3099 3099 3102 3104 3102 3100 3099 3099 3099 3099 3097 3096 3095 3094 3092 3089 3089 3089 3088 3085 3082 3073 3069 3068 3066 3064 3062 3062 3059 3057 3054 3046
3114 3112 3110 3107 3103 3101 3100 3098 3096 3094 3093 3093 3093 3093 3094 3095 3096 3096 3097 3097 3097 3097 3096 3096 3096 3094 3093 3092 3092 3090 3089 3089 3086 3086 3084 3081 3077 3070 3066 3063 3061 3061 3059 3058 3056 3052 3047
3108 3105 3103 3101 3098 3096 3094 3093 3091 3089 3089 3089 3088 3090 3089 3090 3095 3092 3091 3095 3094 3093 3093 3091 3092 3091 3090 3090 3088 3088 3087 3087 3085 3084 3082 3081 3075 3065 3061 3058 3057 3057 3056 3054 3053 3049 3045
3101 3098 3097 3094 3092 3090 3089 3088 3086 3085 3084 3083 3084 3084 3084 3086 3086 3088 3089 3089 3091 3091 3090 3089 3088 3088 3086 3086 3087 3084 3084 3084 3082 3082 3081 3079 3073 3068 3058 3058 3055 3054 3052 3050 3049 3046 3039
3093 3090 3089 3088 3085 3085 3084 3082 3081 3080 3080 3080 3080 3081 3081 3080 3079 3080 3082 3083 3085 3086 3086 3085 3085 3085 3084 3083 3083 3081 3080 3079 3079 3077 3077 3075 3069 3068 3064 3057 3055 3047 3045 3044 3044 3040 3031
3086 3083 3081 3080 3079 3078 3078 3077 3074 3073 3074 3078 3077 3076 3075 3075 3079 3077 3078 3079 3080 3083 3082 3082 3081 3082 3082 3079 3077 3076 3076 3075 3074 3073 3072 3070 3064 3061 3054 3050 3046 3040 3037 3036 3033 3029 3028
3080 3077 3076 3075 3074 3073 3073 3071 3070 3069 3068 3069 3072 3073 3072 3072 3071 3074 3074 3075 3076 3077 3079 3078 3079 3078 3077 3075 3075 3072 3071 3070 3068 3067 3067 3065 3059 3055 3043 3045 3041 3035 3032 3030 3027 3025 3020
3073 3072 3070 3068 3068 3068 3067 3067 3065 3064 3064 3062 3062 3065 3066 3067 3069 3067 3067 3069 3071 3070 3072 3072 3072 3070 3071 3072 3069 3067 3065 3064 3063 3062 3062 3060 3057 3055 3042 3041 3036 3030 3029 3027 3025 3022 3018
3067 3066 3065 3062 3061 3062 3061 3060 3059 3058 3058 3058 3060 3059 3061 3057 3062 3066 3065 3063 3064 3065 3063 3065 3067 3065 3067 3065 3062 3061 3059 3057 3056 3055 3056 3053 3054 3055 3045 3041 3038 3028 3027 3025 3023 3020 3017
3061 3060 3057 3057 3055 3055 3056 3055 3055 3053 3052 3052 3051 3052 3052 3047 3052 3054 3057 3058 3057 3057 3056 3057 3060 3062 3060 3059 3056 3053 3051 3050 3047 3045 3044 3045 3047 3050 3046 3042 3033 3025 3025 3024 3021 3019 3017
3053 3053 3051 3050 3049 3049 3049 3050 3049 3049 3046 3044 3047 3046 3042 3042 3039 3044 3046 3048 3046 3048 3048 3049 3053 3053 3054 3052 3052 3047 3049 3046 3045 3042 3040 3040 3042 3046 3043 3042 3035 3024 3024 3023 3020 3018 3017
3046 3045 3043 3043 3043 3042 3041 3042 3042 3042 3041 3039 3041 3041 3040 3035 3033 3036 3036 3039 3040 3042 3040 3042 3045 3046 3047 3046 3045 3043 3040 3042 3040 3037 3036 3037 3038 3037 3039 3039 3027 3023 3022 3022 3023 3024 3017
3039 3038 3037 3036 3035 3036 3035 3035 3036 3035 3034 3032 3034 3035 3032 3027 3024 3027 3029 3031 3033 3035 3036 3039 3041 3041 3041 3042 3040 3038 3033 3032 3030 3028 3029 3031 3032 3031 3033 3035 3027 3021 3022 3023 3022 3019 3017
3032 3031 3030 3029 3029 3029 3029 3029 3029 3029 3029 3027 3024 3030 3025 3020 3016 3017 3017 3020 3026 3031 3030 3031 3031 3035 3036 3035 3035 3032 3028 3025 3023 3022 3022 3023 3022 3024 3024 3021 3020 3021 3021 3020 3019 3017 3018